Stündliche Wetter Abyzovo

Heute, 25 Juni, Freitag

Zeit Temperatur Niederschläge Wind Luftdruck Luftfeuchtigkeit
00:00 +17°C° 0.3 mm 2 m/S 748 mmHg 93%
01:00 +17°C° 0.3 mm 2 m/S 747 mmHg 96%
02:00 +17°C° 0.3 mm 2 m/S 747 mmHg 97%
03:00 +17°C° 0.3 mm 2 m/S 747 mmHg 97%
04:00 +18°C° 0.3 mm 2 m/S 747 mmHg 98%
05:00 +19°C° 0.1 mm 2 m/S 747 mmHg 96%
06:00 +20°C° 0.1 mm 2 m/S 747 mmHg 94%
07:00 +22°C° 0.1 mm 1 m/S 747 mmHg 92%
08:00 +24°C° 0.2 mm 2 m/S 747 mmHg 84%
09:00 +26°C° 0.2 mm 2 m/S 747 mmHg 76%
10:00 +27°C° 0.2 mm 2 m/S 746 mmHg 67%
11:00 +29°C° 0.1 mm 3 m/S 746 mmHg 61%
12:00 +30°C° 0.1 mm 3 m/S 746 mmHg 54%
13:00 +31°C° 0.1 mm 3 m/S 746 mmHg 47%
14:00 +31°C° 0 mm 3 m/S 746 mmHg 49%
15:00 +31°C° 0 mm 3 m/S 746 mmHg 50%
16:00 +31°C° 0 mm 3 m/S 746 mmHg 51%
17:00 +29°C° 0.5 mm 4 m/S 746 mmHg 62%
18:00 +27°C° 0.5 mm 4 m/S 746 mmHg 73%
19:00 +25°C° 0.5 mm 5 m/S 746 mmHg 84%
20:00 +22°C° 1 mm 4 m/S 746 mmHg 88%
21:00 +20°C° 1 mm 2 m/S 746 mmHg 92%
22:00 +20°C° 1 mm 1 m/S 745 mmHg 96%
23:00 +19°C° 0 mm 1 m/S 745 mmHg 96%

Morgen, 26 Juni, Samstag

Zeit Temperatur Niederschläge Wind Luftdruck Luftfeuchtigkeit
00:00 +19°C° 0 mm 1 m/S 746 mmHg 96%
01:00 +18°C° 0 mm 1 m/S 746 mmHg 96%
02:00 +18°C° 0 mm 1 m/S 746 mmHg 95%
03:00 +18°C° 0 mm 1 m/S 746 mmHg 95%
04:00 +16°C° 0 mm 0 m/S 746 mmHg 94%
05:00 +19°C° 0 mm 1 m/S 746 mmHg 92%
06:00 +21°C° 0 mm 1 m/S 745 mmHg 89%
07:00 +22°C° 0 mm 1 m/S 745 mmHg 87%
08:00 +24°C° 0.1 mm 2 m/S 745 mmHg 80%
09:00 +26°C° 0.1 mm 2 m/S 745 mmHg 74%
10:00 +28°C° 0.1 mm 3 m/S 745 mmHg 67%
11:00 +29°C° 0 mm 3 m/S 745 mmHg 64%
12:00 +30°C° 0 mm 3 m/S 745 mmHg 61%
13:00 +31°C° 0 mm 3 m/S 745 mmHg 58%
14:00 +32°C° 0.1 mm 4 m/S 745 mmHg 58%
15:00 +32°C° 0.1 mm 4 m/S 744 mmHg 59%
16:00 +30°C° 0.1 mm 5 m/S 744 mmHg 59%
17:00 +29°C° 0.4 mm 4 m/S 744 mmHg 67%
18:00 +27°C° 0.4 mm 3 m/S 744 mmHg 75%
19:00 +26°C° 0.4 mm 3 m/S 744 mmHg 82%
20:00 +25°C° 0.2 mm 2 m/S 744 mmHg 85%
21:00 +24°C° 0.2 mm 2 m/S 744 mmHg 87%
22:00 +22°C° 0.2 mm 1 m/S 744 mmHg 90%
23:00 +22°C° 0 mm 1 m/S 744 mmHg 90%

übermorgen, 27 Juni, Sonntag

Zeit Temperatur Niederschläge Wind Luftdruck Luftfeuchtigkeit
00:00 +21°C° 0 mm 1 m/S 745 mmHg 91%
01:00 +19°C° 0 mm 0 m/S 745 mmHg 91%
02:00 +18°C° 0 mm 0 m/S 745 mmHg 92%
03:00 +18°C° 0 mm 0 m/S 745 mmHg 92%
04:00 +18°C° 0 mm 0 m/S 745 mmHg 92%
05:00 +19°C° 0 mm 0 m/S 745 mmHg 89%
06:00 +22°C° 0 mm 1 m/S 746 mmHg 86%
07:00 +24°C° 0 mm 1 m/S 746 mmHg 83%
08:00 +25°C° 0 mm 1 m/S 746 mmHg 75%
09:00 +27°C° 0 mm 2 m/S 746 mmHg 66%
10:00 +28°C° 0 mm 2 m/S 746 mmHg 58%
11:00 +29°C° 0 mm 3 m/S 746 mmHg 53%
12:00 +30°C° 0 mm 3 m/S 746 mmHg 49%
13:00 +31°C° 0 mm 3 m/S 746 mmHg 44%
14:00 +30°C° 0 mm 3 m/S 746 mmHg 44%
15:00 +30°C° 0 mm 3 m/S 746 mmHg 44%
16:00 +30°C° 0 mm 3 m/S 746 mmHg 44%
17:00 +29°C° 0 mm 3 m/S 746 mmHg 52%
18:00 +28°C° 0 mm 2 m/S 746 mmHg 60%
19:00 +27°C° 0 mm 2 m/S 746 mmHg 68%
20:00 +25°C° 0 mm 1 m/S 747 mmHg 72%
21:00 +23°C° 0 mm 1 m/S 747 mmHg 75%
22:00 +21°C° 0 mm 1 m/S 747 mmHg 79%
23:00 +21°C° 0 mm 1 m/S 747 mmHg 79%

28 Juni, Montag

Zeit Temperatur Niederschläge Wind Luftdruck Luftfeuchtigkeit
00:00 +20°C° 0 mm 1 m/S 747 mmHg 79%
01:00 +20°C° 0 mm 1 m/S 747 mmHg 79%
02:00 +19°C° 0 mm 1 m/S 747 mmHg 80%
03:00 +19°C° 0 mm 1 m/S 747 mmHg 81%
04:00 +17°C° 0 mm 0 m/S 747 mmHg 82%
05:00 +19°C° 0 mm 0 m/S 747 mmHg 77%
06:00 +22°C° 0 mm 1 m/S 748 mmHg 72%
07:00 +24°C° 0 mm 1 m/S 748 mmHg 66%
08:00 +26°C° 0 mm 1 m/S 748 mmHg 61%
09:00 +27°C° 0 mm 1 m/S 748 mmHg 56%
10:00 +29°C° 0 mm 1 m/S 748 mmHg 51%
11:00 +28°C° 0 mm 0 m/S 748 mmHg 48%
12:00 +29°C° 0 mm 0 m/S 748 mmHg 45%
13:00 +29°C° 0 mm 0 m/S 747 mmHg 42%
14:00 +31°C° 0 mm 1 m/S 747 mmHg 43%
15:00 +31°C° 0 mm 1 m/S 747 mmHg 44%
16:00 +31°C° 0 mm 1 m/S 747 mmHg 44%
17:00 +30°C° 0 mm 1 m/S 747 mmHg 52%
18:00 +29°C° 0 mm 1 m/S 747 mmHg 60%
19:00 +26°C° 0 mm 0 m/S 747 mmHg 69%
20:00 +24°C° 0 mm 0 m/S 747 mmHg 72%
21:00 +25°C° 0 mm 1 m/S 747 mmHg 76%
22:00 +23°C° 0 mm 1 m/S 747 mmHg 79%
23:00 +23°C° 0 mm 1 m/S 747 mmHg 80%

29 Juni, Dienstag

Zeit Temperatur Niederschläge Wind Luftdruck Luftfeuchtigkeit
00:00 +22°C° 0 mm 1 m/S 747 mmHg 80%
01:00 +22°C° 0 mm 1 m/S 747 mmHg 80%
02:00 +21°C° 0 mm 1 m/S 747 mmHg 81%
03:00 +21°C° 0 mm 1 m/S 747 mmHg 81%
04:00 +21°C° 0 mm 1 m/S 747 mmHg 81%
05:00 +23°C° 0 mm 1 m/S 747 mmHg 77%
06:00 +24°C° 0 mm 2 m/S 747 mmHg 72%
07:00 +26°C° 0 mm 2 m/S 747 mmHg 68%
08:00 +28°C° 0 mm 2 m/S 747 mmHg 64%
09:00 +29°C° 0 mm 2 m/S 747 mmHg 59%
10:00 +31°C° 0 mm 2 m/S 747 mmHg 55%
11:00 +33°C° 0 mm 3 m/S 747 mmHg 52%
12:00 +33°C° 0 mm 3 m/S 747 mmHg 49%
13:00 +34°C° 0 mm 3 m/S 747 mmHg 47%
14:00 +34°C° 0 mm 3 m/S 746 mmHg 47%
15:00 +34°C° 0 mm 3 m/S 746 mmHg 47%
16:00 +34°C° 0 mm 2 m/S 746 mmHg 47%
17:00 +32°C° 0 mm 2 m/S 746 mmHg 54%
18:00 +30°C° 0 mm 2 m/S 746 mmHg 61%
19:00 +29°C° 0 mm 2 m/S 745 mmHg 68%
20:00 +27°C° 0 mm 1 m/S 745 mmHg 73%
21:00 +26°C° 0 mm 1 m/S 746 mmHg 79%
22:00 +22°C° 0 mm 0 m/S 746 mmHg 84%
23:00 +22°C° 0 mm 0 m/S 746 mmHg 85%

30 Juni, Mittwoch

Zeit Temperatur Niederschläge Wind Luftdruck Luftfeuchtigkeit
00:00 +21°C° 0 mm 0 m/S 746 mmHg 86%
01:00 +23°C° 0 mm 1 m/S 745 mmHg 87%
02:00 +22°C° 0 mm 1 m/S 746 mmHg 86%
03:00 +22°C° 0 mm 1 m/S 746 mmHg 85%
04:00 +22°C° 0 mm 1 m/S 746 mmHg 84%
05:00 +24°C° 0 mm 1 m/S 746 mmHg 79%
06:00 +26°C° 0 mm 1 m/S 746 mmHg 73%
07:00 +27°C° 0 mm 1 m/S 746 mmHg 68%
08:00 +29°C° 0 mm 1 m/S 746 mmHg 60%
09:00 +31°C° 0 mm 2 m/S 746 mmHg 53%
10:00 +34°C° 0 mm 2 m/S 746 mmHg 45%
11:00 +35°C° 0 mm 3 m/S 745 mmHg 42%
12:00 +36°C° 0 mm 3 m/S 745 mmHg 39%
13:00 +37°C° 0 mm 4 m/S 745 mmHg 36%
14:00 +37°C° 0 mm 4 m/S 745 mmHg 37%
15:00 +37°C° 0 mm 3 m/S 745 mmHg 38%
16:00 +37°C° 0 mm 3 m/S 744 mmHg 39%
17:00 +35°C° 0 mm 3 m/S 744 mmHg 47%
18:00 +34°C° 0 mm 2 m/S 744 mmHg 55%
19:00 +31°C° 0 mm 1 m/S 744 mmHg 63%
20:00 +30°C° 0 mm 1 m/S 744 mmHg 65%
21:00 +28°C° 0 mm 1 m/S 744 mmHg 68%
22:00 +27°C° 0 mm 2 m/S 743 mmHg 71%
23:00 +26°C° 0 mm 2 m/S 743 mmHg 71%
Mehr zeigen

Wir brauchen deine Erlaubnis

Meteoprog und unser Service Anbieter werden persönliche Daten aufbewahren, so wie Cookies, Geräte Bezeichnung oder ähnliche Technologien von deinem Gerät und Prozess, so wie Persönliche Daten Inhalte und Werbungen, genauso wie social Media und den Verkehr zu analysieren.

  • Aufbewahrung und/oder Zugang zu deiner Geräte Informationen.

    Cookies, Geräte Bezeichnung oder andere Informationen, können aufbewahrt oder Zugang zu deinem Gerät erhalten, für den Grund, der oben angegeben wird.

  • Personalisierte Werbung und Inhalte, Messungen, Einblick in das Publikum und Produkt Entwicklung.

    Werbungen und Inhalte können personalisiert werden, basierend auf ein Profil. Mehr Daten können besser personalisierte Werbungen und Inhalte hinzufügen. Werbung und Inhalte können gezeigt und gemessen werden. Einblicke über das Publikum, welche die Werbung gesehen haben und den Inhalt, können abgeleitet werden. So wie Daten können genutzt werden, um es zu verbessern oder die Benutzer Erfahrung zu verbessern das System und die Software.

Wenn du “Ich stimme zu” klickst, erlaubst du uns, die Cookies zu benutzen die Geräte Bezeichnung, den Web oder ähnliche Technologien zu benutzen. Deine Settings, können in deinem Gerät bei deinem Browser geändert werden.

Für den bestimmten Zweck, berechtigten Interessen beruhen darauf, mehr als auf den Inhalt. Du kannst mehr darüber in unseren Privaten und Cookie Politik lesen.